Wind_Speed
26 26 26 26 27 27 27 28 28 28 29 29 28 28 27 28 28 29 29 28 29 29 29 28 29 28 28 28 28 27 28 28 28 27 27 27 26 26 25 26 25 25 25
27 27 27 27 28 28 29 29 29 29 29 29 29 29 28 29 29 30 30 31 30 30 30 30 30 30 30 30 29 29 29 29 29 29 28 28 27 27 27 26 26 26 26
28 29 28 28 29 29 29 29 29 28 28 29 30 30 29 29 29 30 31 32 31 31 31 31 31 31 31 31 31 31 31 30 29 30 30 30 29 28 28 28 28 27 26
27 29 29 29 29 30 30 29 29 29 29 29 30 30 30 30 30 30 31 31 31 31 31 32 32 33 33 32 32 32 32 32 31 31 31 32 32 30 30 30 30 29 28
28 29 30 30 29 30 30 30 30 31 30 30 30 30 30 30 30 30 30 31 31 31 31 32 32 33 34 34 34 33 33 33 33 32 33 33 33 33 32 32 32 30 29
29 29 29 29 29 29 30 30 31 30 30 30 30 31 31 30 30 30 31 31 32 32 32 32 33 33 34 34 34 34 34 33 33 33 33 33 33 34 33 33 33 33 31
29 29 29 29 30 30 30 30 30 30 30 30 30 30 30 30 30 31 31 31 31 32 31 32 33 33 33 33 33 34 35 35 35 34 34 34 34 34 34 34 34 34 33
29 29 29 29 29 30 30 30 30 31 31 30 29 29 29 29 29 30 30 29 30 30 29 30 31 32 32 33 33 34 35 36 36 35 35 35 35 35 35 34 34 34 34
28 29 28 29 30 30 30 30 31 31 30 30 29 29 28 28 28 28 29 28 29 29 28 28 29 30 31 32 32 32 34 35 36 35 35 36 36 35 35 35 35 35 35
29 28 28 29 29 29 29 29 29 30 30 29 29 28 28 28 28 27 27 27 27 27 27 27 28 29 30 31 31 31 33 34 35 35 35 35 36 35 35 35 35 35 35
28 28 28 28 28 28 28 28 28 28 28 28 28 27 28 27 27 27 26 25 26 26 26 26 27 28 28 28 29 30 32 34 34 35 36 36 36 36 37 36 36 36 35
26 26 26 27 27 27 27 27 27 27 27 26 26 27 26 26 26 26 25 24 24 25 25 24 23 24 25 26 27 29 30 31 33 34 34 36 36 36 37 37 36 36 35
26 25 25 25 25 25 25 25 25 24 24 24 24 25 25 25 25 25 25 24 23 23 23 23 23 22 23 24 25 27 29 30 31 32 34 35 36 36 36 36 36 36 35
24 23 23 23 23 24 24 24 24 23 23 22 22 22 23 23 24 25 24 24 23 22 22 22 23 22 22 23 24 25 26 27 29 30 31 34 35 35 36 36 36 36 36
23 22 22 22 22 23 23 23 23 22 21 20 20 20 21 21 22 22 22 23 23 23 22 22 22 22 22 22 23 23 24 25 26 27 28 30 32 34 35 36 36 36 36
22 22 22 22 21 22 22 22 22 21 20 20 19 19 20 20 20 20 20 20 21 21 21 22 21 22 22 22 22 23 24 25 25 26 27 28 29 31 33 34 35 36 36
21 22 22 21 21 21 21 21 20 20 19 19 19 19 19 20 20 20 20 19 19 20 20 20 20 21 21 21 21 23 23 24 25 25 25 27 28 29 30 32 34 34 35
21 21 20 20 20 20 19 19 19 19 19 19 19 19 19 19 19 19 19 19 18 19 19 19 19 20 20 20 20 21 21 23 23 24 23 25 26 27 28 29 31 32 33
20 20 19 19 19 18 19 19 19 19 18 18 18 18 18 18 18 18 18 18 18 18 18 18 18 19 20 20 20 20 21 21 22 23 24 25 26 27 27 27 28 31 31
19 19 19 18 18 18 18 18 18 19 18 18 18 17 18 17 17 17 17 18 18 18 17 18 18 19 20 20 20 20 21 20 21 22 22 23 25 26 26 26 27 29 31
19 18 18 18 18 18 17 17 17 18 17 17 17 17 16 16 16 16 16 17 17 17 17 18 18 18 18 18 19 20 20 20 20 21 22 23 24 25 26 26 27 27 28
18 19 18 18 18 18 18 17 17 16 16 16 16 15 15 15 15 15 15 15 16 16 16 16 17 17 17 17 18 18 19 19 20 20 21 21 22 23 24 25 26 26 26
18 18 18 18 18 18 18 18 17 16 15 14 14 13 13 13 13 13 13 14 14 14 14 15 15 16 16 16 17 17 18 18 18 18 18 19 20 21 22 23 24 24 25
18 18 18 19 19 18 17 16 15 14 13 13 12 12 12 12 12 12 12 13 13 14 14 13 14 14 15 15 15 16 16 17 17 17 18 18 19 21 22 22 23 24 25
18 18 18 18 18 17 17 16 14 13 12 12 12 12 12 12 12 13 13 13 13 14 14 14 14 14 15 16 17 17 17 17 17 18 19 19 19 20 21 21 23 23 24
17 17 17 17 16 16 15 14 13 12 12 12 12 12 13 13 13 13 13 13 13 13 14 14 14 14 15 16 17 17 17 16 17 18 19 19 19 20 20 22 23 23 23
Wind_Direction
287 289 290 291 291 290 289 288 288 287 285 283 282 280 278 277 277 276 275 272 271 270 267 265 264 262 259 258 257 255 252 250 248 247 247 246 244 240 240 239 239 237 236
288 289 290 290 290 290 290 288 286 287 285 283 281 279 277 276 275 275 274 272 271 269 267 264 262 261 258 256 256 255 253 250 247 246 247 246 244 241 240 239 239 239 238
290 290 290 290 289 289 290 289 287 286 285 283 281 279 279 278 276 275 274 272 271 269 266 264 262 260 258 256 255 255 253 250 248 246 246 246 243 241 241 241 240 239 239
292 291 291 289 289 289 289 288 287 286 286 285 282 281 280 279 277 276 275 273 271 269 266 264 263 260 258 256 254 254 253 250 248 246 246 246 244 243 242 241 241 240 240
292 292 291 290 289 289 289 287 287 285 285 286 285 283 282 281 280 278 275 273 271 270 268 265 264 261 258 257 255 253 251 248 247 246 245 244 244 245 244 242 242 242 242
290 292 292 291 290 290 289 288 287 286 285 286 285 284 282 281 281 279 277 274 271 269 268 265 263 261 258 256 255 253 251 248 247 246 244 243 243 245 245 243 242 242 242
289 290 292 291 290 290 291 290 289 288 287 286 285 283 282 282 283 281 279 276 272 270 267 264 263 261 258 256 255 254 251 249 247 246 244 244 243 244 245 245 243 242 242
290 292 292 291 291 291 292 291 290 288 287 286 286 283 282 283 283 283 281 278 274 271 268 264 262 260 258 257 255 254 250 249 248 246 245 244 243 244 245 245 244 243 243
291 292 292 293 292 291 292 292 290 288 287 285 285 285 284 283 284 282 280 280 276 272 269 265 262 260 259 258 256 254 250 248 247 246 244 244 244 245 245 246 246 245 245
292 293 293 294 294 294 293 293 293 291 286 284 284 285 285 285 284 282 280 280 277 274 268 267 263 262 261 260 256 254 250 247 247 246 245 245 244 244 245 246 246 245 245
294 294 294 293 293 293 293 293 293 290 287 285 283 285 285 285 285 284 282 279 277 273 269 268 265 264 262 261 257 253 251 247 247 247 247 246 245 244 246 246 246 245 244
296 295 294 294 296 297 297 296 295 291 287 285 285 284 284 284 284 284 283 279 275 272 269 269 268 266 264 262 259 255 253 249 248 247 247 247 246 246 246 246 246 245 245
296 295 296 297 298 299 299 298 298 295 290 287 286 285 284 284 284 283 281 279 275 273 270 269 268 265 265 263 262 259 256 253 251 248 247 247 247 246 245 245 246 245 246
298 297 298 298 299 299 300 301 301 297 293 290 289 288 287 287 285 282 279 278 274 273 273 271 269 266 264 263 263 261 257 255 253 250 248 248 246 245 245 245 245 246 246
301 300 300 299 301 302 301 302 301 299 296 291 289 290 289 289 289 286 281 277 274 271 269 270 270 267 265 264 264 260 257 254 253 252 249 248 246 246 245 245 244 245 246
306 304 302 302 302 303 302 301 300 298 297 295 293 293 292 291 292 289 284 282 278 273 271 270 270 267 266 266 264 261 258 254 251 252 250 249 247 247 247 246 244 244 246
310 307 307 305 303 303 304 303 303 302 301 300 297 294 293 293 292 289 286 285 284 280 275 273 269 267 267 267 265 262 259 255 253 253 254 251 248 247 246 245 245 246 248
315 313 312 312 309 308 308 308 306 306 305 303 300 297 295 294 292 288 286 286 285 283 278 275 270 267 267 268 267 264 262 258 254 254 254 250 249 247 246 246 245 246 248
318 318 317 317 315 313 311 310 310 310 308 305 301 299 297 296 294 290 288 287 287 283 278 276 273 271 270 271 269 266 263 260 256 254 252 250 251 251 250 249 249 247 249
321 322 324 321 318 317 314 312 311 310 309 306 302 299 299 298 297 292 289 289 288 284 280 277 274 273 271 270 269 266 265 262 259 258 255 253 254 253 253 252 253 252 251
325 324 323 322 322 321 319 316 314 311 309 308 305 302 300 299 297 295 292 291 289 285 282 277 275 274 273 272 271 269 266 264 262 260 258 258 257 256 255 254 255 256 255
325 325 324 324 323 322 320 319 317 314 311 310 307 306 303 301 299 296 293 291 289 286 283 278 274 273 274 273 272 272 269 266 262 260 259 258 257 257 257 257 257 257 256
324 324 325 324 323 321 321 319 316 316 318 317 314 312 310 308 306 304 301 297 293 290 288 283 278 275 273 274 274 271 269 265 264 263 261 260 260 260 260 259 257 257 257
324 324 323 324 324 324 325 324 321 321 320 319 315 313 316 317 317 315 312 305 300 297 293 289 284 281 276 274 274 271 271 269 268 267 265 263 261 261 261 260 258 258 257
325 326 326 326 327 328 327 328 328 328 327 321 318 317 316 315 314 312 310 307 305 300 296 292 289 284 280 276 274 273 272 271 270 268 266 266 264 262 262 261 261 260 260
327 327 328 330 332 332 331 330 329 327 326 326 325 321 320 317 316 313 311 309 308 305 299 296 292 289 285 281 278 277 276 272 270 268 267 268 268 266 264 263 263 262 261
Height
5848 5846 5845 5843 5841 5839 5837 5836 5834 5833 5831 5830 5829 5828 5827 5826 5825 5824 5824 5823 5823 5823 5823 5823 5823 5824 5824 5825 5826 5827 5828 5829 5831 5832 5834 5835 5837 5839 5841 5843 5845 5847 5849
5843 5841 5839 5837 5835 5833 5831 5829 5828 5826 5824 5823 5821 5820 5819 5819 5818 5817 5816 5816 5815 5815 5815 5815 5815 5816 5817 5818 5819 5820 5821 5823 5824 5826 5828 5829 5831 5833 5835 5837 5839 5841 5843
5837 5835 5833 5831 5829 5827 5825 5823 5821 5819 5817 5816 5814 5812 5811 5811 5810 5809 5808 5808 5807 5806 5807 5807 5807 5808 5809 5810 5811 5812 5814 5815 5817 5819 5821 5823 5825 5827 5829 5831 5833 5835 5838
5831 5829 5827 5825 5823 5820 5818 5816 5814 5812 5810 5808 5806 5805 5803 5803 5802 5801 5800 5799 5798 5798 5798 5798 5799 5800 5800 5801 5803 5804 5805 5808 5810 5812 5814 5816 5818 5820 5822 5825 5827 5829 5832
5825 5823 5821 5818 5816 5814 5811 5809 5807 5805 5803 5801 5799 5797 5796 5795 5794 5792 5791 5790 5790 5789 5789 5789 5790 5791 5792 5793 5794 5796 5797 5799 5802 5804 5806 5808 5810 5813 5815 5818 5820 5822 5825
5819 5816 5814 5812 5809 5807 5804 5802 5800 5797 5795 5793 5791 5789 5788 5786 5785 5783 5783 5782 5781 5780 5780 5780 5781 5782 5783 5784 5785 5787 5789 5790 5793 5796 5798 5800 5803 5805 5808 5810 5813 5815 5818
5812 5810 5808 5805 5802 5800 5797 5795 5792 5790 5788 5785 5783 5781 5780 5778 5776 5775 5774 5773 5772 5772 5771 5771 5772 5772 5773 5774 5776 5778 5780 5782 5784 5787 5790 5792 5795 5797 5800 5803 5805 5808 5811
5805 5803 5800 5798 5795 5793 5790 5788 5785 5782 5780 5777 5775 5773 5772 5771 5768 5767 5765 5764 5764 5763 5763 5762 5763 5764 5764 5765 5767 5769 5771 5773 5776 5778 5781 5784 5787 5790 5792 5795 5797 5800 5803
5798 5796 5793 5791 5788 5786 5783 5780 5777 5774 5772 5770 5767 5766 5764 5763 5761 5759 5757 5756 5755 5755 5755 5754 5755 5755 5756 5756 5758 5759 5762 5764 5767 5769 5772 5775 5778 5781 5784 5787 5789 5792 5795
5791 5789 5786 5784 5781 5778 5775 5772 5769 5766 5763 5761 5760 5758 5756 5755 5753 5752 5750 5748 5747 5747 5747 5747 5747 5747 5748 5748 5749 5751 5753 5755 5758 5761 5763 5766 5769 5772 5775 5778 5781 5784 5787
5785 5782 5780 5777 5774 5771 5768 5765 5761 5758 5755 5754 5752 5750 5749 5747 5745 5744 5743 5742 5741 5740 5740 5740 5740 5740 5740 5740 5741 5743 5745 5747 5750 5752 5755 5758 5760 5764 5767 5770 5773 5776 5778
5778 5775 5773 5770 5767 5764 5761 5757 5754 5750 5748 5746 5744 5743 5741 5740 5738 5737 5736 5735 5734 5734 5734 5733 5733 5733 5733 5733 5734 5735 5737 5739 5741 5744 5747 5749 5752 5755 5758 5761 5764 5767 5770
5772 5769 5766 5763 5760 5757 5754 5751 5747 5744 5741 5739 5738 5736 5735 5733 5732 5730 5729 5729 5728 5728 5728 5727 5727 5727 5727 5727 5727 5728 5729 5731 5733 5736 5738 5741 5743 5746 5749 5753 5755 5759 5761
5766 5763 5760 5757 5754 5751 5748 5744 5741 5738 5735 5733 5731 5730 5728 5727 5725 5724 5723 5723 5722 5722 5722 5721 5721 5721 5721 5721 5721 5722 5722 5724 5725 5728 5730 5732 5735 5738 5741 5744 5747 5750 5753
5761 5758 5754 5751 5748 5745 5742 5739 5735 5733 5730 5728 5726 5724 5723 5721 5720 5718 5717 5717 5717 5716 5716 5715 5715 5714 5715 5715 5715 5715 5716 5717 5719 5720 5722 5724 5727 5729 5732 5735 5738 5741 5744
5756 5753 5749 5746 5743 5740 5736 5733 5730 5727 5725 5722 5721 5719 5718 5716 5715 5713 5712 5711 5710 5710 5710 5710 5709 5709 5709 5709 5709 5709 5710 5710 5712 5713 5715 5717 5719 5721 5724 5727 5730 5732 5735
5751 5747 5744 5740 5737 5734 5731 5728 5725 5722 5720 5718 5716 5714 5713 5712 5710 5708 5707 5706 5705 5704 5704 5704 5704 5703 5703 5703 5703 5703 5703 5704 5705 5707 5708 5710 5712 5714 5716 5719 5721 5724 5727
5747 5743 5739 5735 5732 5729 5726 5723 5721 5718 5715 5713 5712 5710 5708 5707 5705 5703 5702 5701 5700 5699 5699 5698 5698 5698 5698 5698 5698 5698 5698 5698 5699 5700 5702 5703 5705 5707 5709 5711 5713 5715 5718
5743 5739 5735 5732 5729 5726 5723 5720 5717 5714 5711 5709 5707 5705 5704 5702 5700 5699 5697 5696 5695 5694 5694 5693 5693 5693 5692 5692 5692 5692 5692 5692 5693 5694 5695 5697 5698 5700 5702 5704 5705 5708 5710
5740 5736 5732 5729 5725 5722 5719 5716 5713 5710 5708 5705 5703 5701 5699 5697 5695 5694 5693 5692 5690 5689 5688 5688 5687 5687 5687 5686 5686 5687 5687 5687 5687 5688 5689 5690 5691 5693 5695 5697 5698 5700 5702
5737 5733 5729 5726 5722 5719 5716 5713 5710 5707 5704 5702 5699 5697 5695 5693 5691 5690 5688 5687 5686 5684 5683 5683 5682 5682 5681 5681 5681 5681 5681 5681 5681 5682 5683 5684 5686 5687 5688 5690 5691 5693 5694
5734 5730 5726 5723 5719 5716 5713 5710 5707 5704 5701 5698 5696 5693 5691 5690 5688 5686 5684 5683 5681 5680 5679 5678 5677 5677 5676 5676 5676 5675 5676 5676 5676 5677 5677 5678 5679 5680 5681 5682 5684 5685 5686
5731 5727 5724 5720 5717 5713 5710 5707 5703 5700 5698 5695 5693 5691 5688 5686 5685 5683 5681 5679 5677 5676 5675 5673 5673 5672 5672 5671 5671 5671 5670 5670 5671 5671 5672 5672 5673 5674 5674 5675 5676 5677 5679
5728 5725 5721 5718 5714 5710 5707 5703 5700 5697 5695 5693 5690 5688 5686 5684 5682 5680 5678 5676 5674 5672 5671 5669 5668 5667 5667 5667 5666 5666 5666 5666 5666 5666 5666 5667 5667 5668 5668 5669 5669 5670 5671
5725 5722 5718 5715 5711 5707 5704 5701 5698 5695 5693 5690 5688 5686 5684 5682 5679 5677 5675 5673 5671 5669 5667 5666 5664 5663 5663 5662 5662 5661 5661 5661 5661 5661 5661 5661 5661 5662 5662 5662 5662 5663 5664
5722 5719 5716 5712 5708 5705 5701 5698 5696 5693 5691 5689 5686 5684 5681 5679 5676 5674 5672 5669 5667 5665 5664 5662 5661 5660 5659 5658 5657 5656 5656 5656 5656 5656 5655 5655 5655 5656 5656 5656 5656 5656 5656